Location: Gradaro
(45.0833°N, 10.8833°E)
Time: 21:52:23
(UTC+00:00)

ALOS - Pass Details

Date: 29 November 2020
Orbit: 683 x 685 km, 97.9° (Epoch: 19 January)

Event Time Altitude Azimuth Distance (km) Brightness Sun altitude
Rises 05:25:54 0° 355° (N) 3,063 5.4 -11.5°
Reaches altitude 10° 05:29:09 10° 331° (NNW) 2,141 4.4 -11.0°
Maximum altitude 05:31:32 14° 300° (WNW) 1,874 3.9 -10.6°
Enters shadow 05:31:52 14° 296° (WNW) 1,879 3.9 -10.5°
